Home > Weather > Santarém > Past weeks

Flag for Brazil Past Weather in Santarém, Pará, Brazil — Yesterday and Last 2 Weeks

Now
84 °F

Broken clouds.


Feels Like: 96 °F
Forecast: 75 / 87 °F
Wind: 14 mph from Northeast

Location: Santarem-Aeroporto

Current Time: May 28, 2016 at 1:11:54 PM

Latest Report: May 28, 2016 at 12:00 PM


Visibility: N/A

Pressure: 29.95 "Hg

Humidity: 84%

Dew Point: 79 °F

Location of SantarémLocation

Past Weather in Santarém — Graph

°F

Santarém Temperature Yesterday

Maximum temperature yesterday: 86 °F (at 1:00 PM)
Minimum temperature yesterday: 75 °F (at 12:00 AM)
Average temperature yesterday: 80 °F

High & Low Weather Summary for the Past Weeks

 TemperatureHumidityPressure
High88 °F (May 14, 4:00 PM)100% (May 14, 1:00 AM)30.01 "Hg (May 14, 1:00 AM)
Low73 °F (May 25, 3:00 AM)66% (May 14, 4:00 PM)29.77 "Hg (May 16, 11:00 AM)
Average81 °F85%29.91 "Hg
* Reported May 13 11:00 AM — May 28 11:00 AM, Santarém, Weather by CustomWeather, © 2016

Note: Actual official high and low records may vary slightly from our data, if they occured in-between our weather recording intervals... More about our weather records

Advertising

Santarém Weather History for the Previous 24 Hours

Scroll right to see more
 ConditionsComfort  
Time TempWeatherWind HumidityBarometerVisibility
11:00 AM
Sat, May 28
82 °FBroken clouds.15 mph84%29.95 "HgN/A
10:00 AM82 °FBroken clouds.7 mph89%29.98 "HgN/A
9:00 AM82 °FBroken clouds.7 mph84%29.95 "HgN/A
8:00 AM77 °FPartly sunny.2 mph94%29.95 "HgN/A
7:00 AM75 °FPassing clouds.No wind94%29.92 "HgN/A
6:00 AM75 °FPassing clouds.3 mph94%29.89 "HgN/A
5:00 AM75 °FClear.6 mph94%29.89 "Hg10 mi
4:00 AM75 °FClear.3 mph94%29.86 "Hg10 mi
3:00 AM77 °FClear.5 mph94%29.86 "Hg10 mi
2:00 AM77 °FClear.3 mph94%29.89 "Hg10 mi
1:00 AM77 °FPassing clouds.6 mph94%29.89 "HgN/A
12:00 AM77 °FPassing clouds.5 mph94%29.92 "HgN/A
11:00 PM
Fri, May 27
77 °FPassing clouds.3 mph94%29.92 "HgN/A
10:00 PM75 °FPassing clouds.3 mph94%29.92 "HgN/A
9:00 PM79 °FPassing clouds.5 mph89%29.89 "HgN/A
8:00 PM77 °FPassing clouds.2 mph94%29.86 "HgN/A
7:00 PM81 °FPassing clouds.5 mph79%29.86 "HgN/A
6:00 PM84 °FPassing clouds.9 mph74%29.83 "HgN/A
5:00 PM86 °FPassing clouds.8 mph66%29.83 "HgN/A
4:00 PM86 °FPassing clouds.12 mph70%29.83 "HgN/A
3:00 PM86 °FPassing clouds.8 mph70%29.83 "HgN/A
2:00 PM86 °FScattered clouds.5 mph75%29.86 "HgN/A
1:00 PM86 °FBroken clouds.10 mph75%29.92 "HgN/A
Weather by CustomWeather, © 2016

See weather overviewHow to use our weather pages